Starlink 33663

operational
NORAD ID: 63652 Int'l Des: 2025-083 Owner: SPXS Country: US Constellation: starlink
LEOCIRCULAR

Starlink 33663について

説明を読み込み中...

リアルタイム位置

3D地球を読み込み中...

次回通過

高度履歴

Altitude vs Time

uPlot chart will show altitude changes over time

軌道要素

1 63652U 25083U 25351.33223054 .00019195 00000-0 70466-3 0 9999
2 63652 42.9963 110.1061 0001068 230.1694 129.9064 15.27606788 37479
Epoch: Dec 17, 2025 • Age: 10 hours

現在のステータス

高度 486.3 km
速度 7.63 km/s
衛星直下点 41.11°N, 175.9°W
打ち上げ日 Apr 25, 2025
運用期間 0.6 years
タイプ internet

技術仕様

分類 Payload
質量 575.00 kg
乾燥質量 530.00 kg
総質量 575.00 kg
長さ 0.30 m
直径 4.10 m
スパン 29.00 m
形状 Box + pan
製造者 SPXS
バスタイプ Starlink V2MO
フェーズステータス In Orbit
所有者/国 SPXS/US

大規模コンステレーション

Loading constellations...